STARLINK-2385, 47804

Orbit data source: Space-Track

STARLINK-2385, 47804 is a payload satellite owned by SpaceX/Seattle (US) in LEO that was launched on Thu, 11 Mar 2021 UTC via an FALCON 9 launch vehicle from the Air Force Eastern Test Range (AFETR). Payload-class satellites include a variety of spacecraft equipped with specific instruments for various scientific and technological missions. These include communications satellites like Starlink; space stations such as the ISS; scientific satellites like the Hubble; Earth observation satellites from companies like Planet Labs, Umbra, and HawkEye 360; GPS; miniature CubeSats for education and research; and military/defense satellites.

Loading next visibility...
Identifier
47804, 2021-018T
Orbit
LEO
Country
Flag of USUS
Related business
Manufacturer
SpaceX/Seattle
Mission
Operational Commercial Communications
Bus & Motor
STARLINK, Unknown motor
Mass
260 kg wet, ~248 kg dry
Launch date (UTC)
2021-03-11 (5 years ago)
Launch vehicle
FALCON 9
Launch site
Air Force Eastern Test Range (AFETR)
Object type
Payload
Rocket body
Debris
Shape & HBR
Box + 1 Pan, 10.1 m
Radar Cross Section
13.562 m², Large (>1 m²)

Expand to show TLE details & history
Last TLE update: 13 hours ago

TLE from 13 hours ago
0 STARLINK-2385
1 47804U 21018T   26035.27485579  .00001826  00000-0  14146-3 0  9994
2 47804  53.0555  21.6239 0001262  99.1837 260.9295 15.06401861271835
Epoch: 2026-02-04T06:35Z
TLE epoch observation values (Epoch: 2026-02-04T06:35:47.540Z)
Latitude
0.00001°
Longitude
148.23204°
Altitude
548.223 km
Speed
7.589 km/s
True Right ascension
01h 26m 29s
True Declination
0° 00' 00"
Sunlit
Object was in daylight at epoch
Visualization orbit readout
Latitude
Unknown
Longitude
Unknown
Altitude
Unknown
Speed
Unknown
Apparent Right ascension
Unknown
Apparent Declination
Unknown
Sunlit
N/A
Visualization observer readout
Local Sidereal Time
21:22:09
Azimuth
Unknown
Elevation
Unknown
Doppler factor
Unknown
Orbital elements
Apogee altitude
548.35 km
Perigee altitude
546.602 km
Semi-major axis
6,925.613 km
Eccentricity
0.00013
Inclination
53.0555°
RAAN
21.6239°
Arg. of periapsis
99.1837°
True anomaly
260.91522°
Mean anomaly
260.9295°
Eccentric anomaly
260.92236°
Mean motion
3.76579 °/min
Orbital period
95.6 mins
BSTAR
0.00014146
Loading maneuver chart data...
Computing Atmospheric mass density...
Loading historical data...
Loading historical data...
Loading historical data...
Loading historical data...
Loading historical data...
Loading historical data...
Loading historical data...

Documentation

Showing up to 5 results
|